Wind_Speed
39 39 38 37 37 37 37 36 35 35 35 34 32 32 33 32 32 33 33 34 35 36 36 36 35 35 34 34 34 33 33 33 33 33 33 33 33 34
39 39 38 37 37 37 37 37 36 36 36 34 33 33 33 33 34 34 35 35 37 37 37 37 37 36 36 35 34 34 34 34 35 35 35 35 35 35
38 38 37 36 36 36 36 35 34 35 35 34 34 34 34 34 35 35 35 35 36 37 37 38 37 36 36 35 35 35 35 35 36 36 36 37 37 37
35 35 35 35 34 34 34 33 33 33 33 34 34 34 33 33 33 34 35 37 37 36 37 36 35 34 34 34 34 35 36 37 37 38 38 39 39 40
30 31 31 31 32 32 32 32 32 32 33 33 34 34 34 33 33 33 34 36 36 35 34 33 32 33 33 33 34 36 37 38 39 40 41 42 42 43
26 26 27 27 28 29 29 29 29 29 30 31 32 32 32 32 32 31 31 32 31 30 30 31 32 32 32 33 35 36 38 39 41 42 43 44 45 46
22 23 23 23 23 24 24 23 25 27 27 27 28 29 29 30 29 29 28 28 26 27 28 29 30 30 32 34 35 37 39 40 42 43 45 46 47 49
18 17 18 20 20 20 21 21 22 23 25 26 27 27 26 26 25 25 24 24 23 24 25 27 29 30 32 33 35 37 38 40 42 44 46 48 49 51
15 15 16 17 18 18 19 19 20 20 22 24 24 23 22 20 19 18 18 18 20 21 22 24 25 27 29 31 33 36 38 41 43 46 48 49 50 51
15 14 14 15 15 16 16 17 19 19 20 21 20 19 17 15 14 14 15 16 18 19 20 21 23 26 28 31 34 37 39 41 44 46 48 49 50 50
14 13 14 14 15 16 17 17 19 18 16 16 15 14 13 11 10 11 11 12 13 15 17 20 22 25 28 30 33 36 38 40 43 45 46 47 48 49
13 14 14 15 16 17 16 17 18 16 14 13 12 11 10 8 8 8 9 10 12 14 16 19 22 25 28 31 33 35 37 39 40 42 43 45 45 46
12 13 13 14 14 14 14 14 13 13 12 11 10 9 8 7 7 7 8 9 11 14 16 19 22 25 27 30 32 34 36 37 38 39 40 40 40 40
12 12 13 13 13 13 13 13 12 12 12 11 10 9 7 7 6 6 7 9 11 14 17 19 22 25 27 29 31 33 34 35 35 35 36 36 36 36
13 13 13 14 14 14 13 13 13 12 11 10 9 8 7 6 6 6 8 10 12 15 17 20 22 24 26 29 30 31 32 33 32 32 32 32 31 31
14 15 14 14 14 14 13 13 12 11 10 9 8 7 6 6 6 7 9 11 13 16 18 20 22 24 27 28 29 30 30 30 29 29 28 28 27 27
16 16 16 15 14 14 14 13 11 10 9 8 7 7 7 7 7 9 11 13 14 16 19 20 22 24 27 28 29 29 30 29 28 26 25 24 24 23
17 17 16 16 15 14 13 12 11 10 9 8 8 8 8 8 9 10 12 14 15 17 19 21 23 25 27 28 29 29 29 29 27 25 22 20 20 20
18 18 17 16 15 14 13 12 11 11 10 9 9 9 9 10 11 12 14 15 17 18 20 22 23 25 27 28 29 29 29 28 27 25 21 19 18 17
19 19 18 17 16 14 13 13 12 12 11 11 11 11 11 12 13 14 15 17 18 19 21 22 24 25 26 28 29 29 28 28 26 23 21 19 17 16
20 19 18 17 16 15 14 13 13 13 12 12 12 12 13 14 14 16 17 18 19 20 21 22 24 25 26 27 28 28 28 28 26 23 20 19 17 15
21 19 18 17 16 16 15 14 14 13 13 14 14 14 15 15 16 17 18 19 20 21 21 23 24 26 26 27 28 28 28 27 26 23 20 19 17 15
20 19 18 17 17 16 16 15 15 15 15 15 16 16 17 17 18 19 20 21 21 21 22 23 24 26 26 27 27 28 28 27 26 24 22 19 17 15
Wind_Direction
269 269 268 266 265 265 263 261 260 257 256 254 255 253 248 247 243 242 243 243 243 244 245 244 245 245 245 246 247 248 249 250 250 251 251 252 252 253
268 268 267 264 263 262 260 258 256 254 253 253 252 250 247 246 244 245 246 244 243 244 245 245 245 245 245 246 248 249 250 251 251 252 253 253 254 255
268 266 265 264 261 260 258 255 253 252 251 249 248 246 246 246 246 246 246 244 244 244 245 246 245 245 246 248 249 251 252 253 254 255 255 256 256 256
268 265 262 261 259 256 253 250 249 248 246 245 243 242 245 245 246 247 247 246 245 244 246 245 245 247 249 250 251 253 254 255 256 257 257 257 258 258
267 264 260 257 255 253 250 247 245 243 242 241 240 242 244 246 246 247 247 246 247 245 247 247 247 249 251 252 254 255 257 258 259 259 260 261 261 262
267 263 258 255 251 248 246 244 241 238 235 236 237 238 240 243 244 245 246 247 248 248 249 250 250 252 254 256 259 260 262 263 263 263 264 264 264 263
266 263 258 250 246 245 242 238 236 234 232 232 234 236 239 242 243 244 245 246 248 250 252 254 256 258 259 261 263 264 265 266 266 267 266 266 266 265
264 261 253 244 240 237 235 234 232 232 231 231 233 236 239 241 242 243 244 246 250 252 256 259 262 263 264 265 266 268 269 270 270 270 270 270 269 267
263 259 249 240 235 229 227 224 228 231 233 231 231 232 235 236 235 238 244 249 255 259 261 264 266 269 271 272 273 274 274 274 274 273 273 272 271 269
256 254 242 236 233 223 224 223 225 228 227 226 226 226 226 227 233 240 247 254 259 263 267 272 275 277 279 279 280 280 280 279 278 278 277 275 272 270
249 241 232 229 223 222 224 223 222 219 217 215 215 217 217 220 228 239 250 259 267 273 277 280 283 285 286 287 288 287 286 285 283 282 280 277 274 271
240 233 229 226 220 217 218 216 212 209 205 201 200 202 203 212 228 245 259 269 277 283 287 289 292 295 296 296 295 294 292 290 288 285 282 280 277 272
231 226 223 216 208 203 200 196 194 193 189 187 189 193 200 215 233 252 265 276 286 292 296 299 301 303 304 304 303 300 298 296 293 289 286 283 278 274
223 220 209 197 192 186 180 179 179 177 176 177 184 193 205 220 236 254 276 292 299 303 306 309 310 312 313 313 311 309 306 302 297 293 290 286 281 275
214 207 196 186 179 176 174 175 173 171 174 181 189 197 210 225 245 270 290 301 307 311 314 316 317 319 320 320 319 317 314 309 304 299 295 289 283 277
202 197 189 181 178 176 175 174 173 177 181 187 195 209 223 242 265 283 295 304 313 317 319 321 322 324 326 327 325 324 321 317 310 304 301 296 288 280
196 191 186 182 181 181 181 182 184 189 195 202 214 228 242 259 275 289 298 307 315 321 324 325 327 327 329 330 330 328 327 324 318 309 304 299 294 287
192 190 189 188 188 188 189 192 196 202 210 219 231 245 257 270 283 294 302 309 315 321 325 328 330 331 332 332 332 331 331 329 324 317 308 301 297 292
195 194 194 194 195 197 199 204 209 217 226 235 247 258 268 278 288 296 303 308 313 318 323 327 330 332 333 334 333 332 332 331 328 322 314 305 300 295
199 199 200 201 203 206 210 215 222 231 240 248 257 265 273 281 290 296 302 307 312 317 321 325 329 331 332 334 334 333 333 333 330 325 320 312 304 299
203 204 206 208 211 215 220 225 233 241 249 257 264 271 278 284 291 297 302 306 311 315 318 322 327 330 331 332 334 334 334 334 333 328 322 317 309 303
207 209 211 215 218 222 227 233 241 248 256 262 268 275 282 287 293 297 301 305 309 312 315 319 323 327 330 332 333 334 333 334 334 331 326 320 311 304
210 213 216 220 225 230 235 241 248 255 262 268 273 278 284 289 294 297 300 303 307 310 313 316 320 324 327 329 331 333 332 332 331 330 326 321 314 305
Height
5731 5731 5732 5733 5734 5736 5737 5739 5742 5744 5746 5749 5751 5752 5754 5756 5758 5761 5763 5765 5767 5770 5773 5775 5778 5780 5783 5785 5788 5790 5792 5794 5796 5798 5800 5801 5803 5804
5718 5719 5720 5721 5722 5724 5726 5728 5730 5733 5736 5739 5741 5743 5745 5748 5750 5752 5754 5756 5758 5761 5764 5766 5769 5771 5774 5777 5779 5781 5783 5786 5787 5789 5791 5792 5794 5795
5706 5707 5708 5709 5711 5712 5714 5717 5719 5722 5725 5728 5731 5733 5736 5738 5741 5743 5746 5747 5750 5752 5755 5757 5760 5762 5765 5768 5770 5772 5774 5776 5778 5780 5781 5782 5784 5785
5695 5695 5696 5698 5700 5701 5703 5706 5709 5712 5715 5718 5721 5724 5727 5730 5732 5735 5737 5739 5741 5744 5746 5748 5751 5754 5756 5758 5761 5763 5765 5766 5768 5769 5771 5772 5773 5774
5684 5684 5686 5687 5689 5691 5694 5696 5699 5703 5706 5710 5713 5716 5719 5722 5724 5727 5729 5731 5733 5735 5737 5740 5743 5745 5747 5749 5751 5753 5755 5756 5757 5758 5759 5760 5761 5762
5675 5675 5676 5678 5679 5682 5685 5688 5691 5694 5698 5701 5704 5707 5711 5714 5717 5719 5721 5724 5726 5728 5730 5733 5735 5737 5739 5741 5743 5744 5744 5745 5746 5746 5747 5748 5748 5749
5667 5667 5669 5670 5672 5674 5677 5680 5684 5687 5691 5694 5697 5700 5704 5707 5709 5712 5715 5717 5719 5722 5724 5726 5728 5729 5730 5732 5733 5733 5734 5734 5734 5734 5734 5734 5734 5735
5661 5661 5662 5663 5666 5668 5672 5675 5678 5681 5684 5688 5691 5694 5697 5700 5703 5706 5709 5711 5714 5716 5717 5719 5720 5721 5722 5722 5722 5722 5722 5722 5721 5720 5720 5719 5719 5719
5656 5657 5658 5659 5661 5663 5666 5669 5672 5676 5679 5683 5686 5689 5692 5695 5697 5700 5703 5706 5708 5709 5711 5712 5712 5712 5713 5712 5712 5711 5710 5709 5707 5706 5705 5703 5702 5702
5652 5653 5655 5656 5657 5660 5663 5666 5669 5671 5674 5678 5681 5684 5687 5690 5693 5696 5699 5701 5702 5703 5704 5705 5705 5704 5704 5703 5701 5699 5697 5695 5693 5691 5689 5687 5685 5684
5649 5650 5652 5654 5655 5658 5660 5663 5665 5668 5671 5674 5677 5681 5684 5687 5690 5692 5695 5696 5697 5698 5698 5698 5697 5696 5694 5692 5690 5687 5684 5681 5678 5675 5672 5670 5668 5667
5646 5647 5649 5651 5652 5655 5657 5660 5663 5666 5669 5672 5675 5678 5681 5684 5687 5689 5690 5692 5692 5693 5692 5691 5689 5687 5685 5682 5679 5675 5672 5668 5664 5661 5657 5655 5652 5651
5643 5645 5646 5648 5650 5652 5655 5658 5661 5664 5667 5670 5674 5677 5679 5682 5684 5685 5686 5687 5687 5687 5686 5684 5682 5679 5676 5672 5668 5664 5660 5655 5651 5647 5643 5640 5638 5636
5641 5643 5644 5646 5649 5651 5654 5657 5660 5663 5666 5669 5672 5675 5677 5679 5681 5682 5683 5683 5682 5681 5680 5678 5675 5672 5668 5664 5659 5654 5649 5644 5639 5635 5631 5628 5625 5623
5639 5641 5643 5645 5648 5650 5653 5656 5659 5662 5665 5668 5671 5673 5675 5676 5678 5678 5678 5678 5677 5676 5673 5671 5668 5665 5661 5656 5651 5645 5639 5634 5629 5624 5620 5617 5615 5613
5637 5639 5642 5644 5647 5650 5653 5656 5659 5662 5664 5666 5669 5671 5672 5673 5674 5674 5674 5673 5672 5670 5668 5665 5662 5658 5654 5648 5643 5637 5632 5626 5621 5616 5611 5608 5605 5604
5634 5637 5640 5643 5647 5649 5652 5655 5658 5660 5663 5665 5667 5668 5669 5670 5671 5670 5670 5669 5667 5665 5663 5660 5656 5652 5647 5642 5637 5631 5625 5619 5614 5609 5605 5601 5598 5597
5632 5635 5638 5642 5645 5648 5651 5653 5656 5658 5660 5662 5664 5665 5666 5666 5667 5666 5665 5664 5662 5660 5658 5655 5651 5646 5642 5637 5631 5625 5619 5614 5608 5603 5599 5596 5593 5591
5630 5633 5636 5640 5643 5646 5649 5651 5654 5656 5658 5659 5660 5661 5662 5662 5662 5661 5660 5659 5657 5655 5653 5649 5645 5641 5637 5632 5626 5620 5615 5609 5603 5598 5594 5591 5589 5586
5627 5630 5634 5637 5640 5643 5646 5649 5651 5653 5654 5655 5656 5657 5657 5657 5657 5657 5656 5654 5652 5650 5647 5644 5640 5636 5631 5627 5621 5616 5610 5605 5599 5594 5590 5587 5585 5583
5624 5627 5631 5634 5637 5640 5643 5645 5647 5649 5650 5651 5652 5653 5653 5653 5652 5651 5650 5649 5647 5644 5642 5638 5635 5631 5626 5622 5617 5611 5606 5601 5596 5591 5587 5584 5582 5580
5621 5624 5628 5631 5634 5637 5640 5642 5644 5645 5646 5647 5648 5648 5648 5648 5647 5646 5645 5643 5641 5639 5636 5633 5629 5626 5622 5617 5612 5607 5602 5597 5592 5588 5584 5581 5578 5577
5617 5621 5625 5628 5631 5633 5636 5638 5639 5641 5642 5642 5643 5643 5643 5642 5641 5640 5639 5637 5635 5633 5630 5627 5624 5620 5616 5612 5607 5602 5598 5593 5588 5584 5581 5578 5575 5573